Pennock, MN

7:57 PM CST on February 20, 2017 (GMT -0600)
Willmar

Weather History for KBDH - December, 2013

Change the Weather History Date:

Sunday, December 1, 2013

  Actual Average (KBBB) Record (KBBB)
Temperature  
Mean Temperature 24 °F -  
Max Temperature 32 °F 30 °F 62 °F (1998)
Min Temperature 15 °F 15 °F -11 °F (2014)
Degree Days  
Heating Degree Days 42    
Moisture  
Dew Point 20 °F    
Average Humidity 82    
Maximum Humidity 93    
Minimum Humidity 69    
Precipitation  
Precipitation 0.00 in - - ()
Sea Level Pressure  
Sea Level Pressure 30.08 in    
Wind  
Wind Speed 4 mph (East)    
Max Wind Speed 10 mph    
Max Gust Speed -    
Visibility 7 miles    
Events Fog    
Averages and records for this station are not official NWS values.
T = Trace of Precipitation, MM = Missing Value Source: NWS Daily Summary

Daily Weather History Graph

Daily Weather History Graph

Search for Another Location

Airport or City:

Trip Planner

Search our weather history database for the weather conditions in past years. The results will help you decide how hot, cold, wet, or windy it might be!

Date:

Astronomy

Dec. 01, 2013 Rise Set
Actual Time 7:39 AM CST 4:39 PM CST
Civil Twilight 7:06 AM CST 5:13 PM CST
Nautical Twilight 6:29 AM CST 5:49 PM CST
Astronomical Twilight 5:53 AM CST 6:25 PM CST
Moon 5:54 AM CST (12/1) 3:53 PM CST (12/1)
Length of Visible Light 10h 07m
Length of Day
9h 00m
Waning Crescent, 2% of the Moon is Illuminated
Dec 1
Waning Crescent
Dec 2
New
Dec 9
First Quarter
Dec 17
Full
Dec 25
Last Quarter

Hourly Weather History & Observations

Time (CST) Temp. Windchill Dew Point Humidity Pressure Visibility Wind Dir Wind Speed Gust Speed Precip Events Conditions
12:15 AM 21.2 °F 16.4 °F 17.6 °F 86% 30.19 in 7.0 mi NNW 3.5 mph - N/A   Clear
12:35 AM 21.2 °F 16.4 °F 17.6 °F 86% 30.19 in 10.0 mi NNW 3.5 mph - N/A   Scattered Clouds
12:55 AM 21.2 °F - 17.6 °F 86% 30.19 in 7.0 mi Calm Calm - N/A   Overcast
1:15 AM 21.2 °F 16.4 °F 17.6 °F 86% 30.18 in 10.0 mi NW 3.5 mph - N/A   Mostly Cloudy
1:35 AM 21.2 °F 13.6 °F 17.6 °F 86% 30.18 in 7.0 mi WNW 5.8 mph - N/A   Overcast
1:55 AM 21.2 °F 13.6 °F 17.6 °F 86% 30.18 in 7.0 mi NNW 5.8 mph - N/A   Mostly Cloudy
2:15 AM 19.4 °F 12.8 °F 15.8 °F 86% 30.18 in 7.0 mi North 4.6 mph - N/A   Mostly Cloudy
2:35 AM 21.2 °F 13.6 °F 17.6 °F 86% 30.19 in 7.0 mi NNW 5.8 mph - N/A   Overcast
2:55 AM 19.4 °F - 15.8 °F 86% 30.19 in 7.0 mi Calm Calm - N/A   Mostly Cloudy
3:15 AM 19.4 °F 14.3 °F 15.8 °F 86% 30.19 in 7.0 mi North 3.5 mph - N/A   Mostly Cloudy
3:35 AM 17.6 °F 12.3 °F 14.0 °F 86% 30.19 in 7.0 mi North 3.5 mph - N/A   Scattered Clouds
3:55 AM 17.6 °F 10.7 °F 15.8 °F 93% 30.18 in 5.0 mi North 4.6 mph - N/A   Clear
4:15 AM 15.8 °F 10.2 °F 12.2 °F 86% 30.18 in 7.0 mi NNW 3.5 mph - N/A   Clear
4:35 AM 17.6 °F 12.3 °F 14.0 °F 86% 30.19 in 7.0 mi NNW 3.5 mph - N/A   Clear
4:55 AM 17.6 °F 8.2 °F 15.8 °F 93% 30.19 in 5.0 mi NW 6.9 mph - N/A   Clear
5:15 AM 15.8 °F 7.2 °F 12.2 °F 86% 30.18 in 3.0 mi NNW 5.8 mph - N/A   Scattered Clouds
5:35 AM 17.6 °F 10.7 °F 15.8 °F 93% 30.19 in 0.5 mi West 4.6 mph - N/A Fog Light Freezing Fog
5:55 AM 17.6 °F 10.7 °F 15.8 °F 93% 30.19 in 0.2 mi NW 4.6 mph - N/A Fog Light Freezing Fog
6:16 AM 19.4 °F 14.3 °F 17.6 °F 93% 30.19 in 0.2 mi NNW 3.5 mph - N/A Fog Light Freezing Fog
6:35 AM 19.4 °F - 17.6 °F 93% 30.19 in 0.2 mi Calm Calm - N/A Fog Light Freezing Fog
6:55 AM 19.4 °F 14.3 °F 17.6 °F 93% 30.19 in 0.5 mi North 3.5 mph - N/A Fog Light Freezing Fog
7:16 AM 21.2 °F 14.9 °F 17.6 °F 86% 30.18 in 0.5 mi North 4.6 mph - N/A Fog Light Freezing Fog
7:35 AM 21.2 °F 16.4 °F 17.6 °F 86% 30.18 in 0.8 mi North 3.5 mph - N/A   Overcast
7:55 AM 21.2 °F 16.4 °F 19.4 °F 93% 30.18 in 0.8 mi NNE 3.5 mph - N/A   Overcast
8:15 AM 21.2 °F - 19.4 °F 93% 30.16 in 1.2 mi Calm Calm - N/A   Overcast
8:35 AM 21.2 °F - 19.4 °F 93% 30.17 in 2.5 mi Calm Calm - N/A   Overcast
8:55 AM 21.2 °F - 19.4 °F 93% 30.17 in 3.0 mi Calm Calm - N/A   Mostly Cloudy
9:15 AM 23.0 °F - 19.4 °F 86% 30.18 in 4.0 mi Calm Calm - N/A   Scattered Clouds
9:36 AM 23.0 °F - 21.2 °F 93% 30.17 in 4.0 mi Calm Calm - N/A   Scattered Clouds
9:55 AM 23.0 °F - 21.2 °F 93% 30.18 in 4.0 mi Calm Calm - N/A   Clear
10:15 AM 24.8 °F - 21.2 °F 86% 30.18 in 4.0 mi Calm Calm - N/A   Scattered Clouds
10:36 AM 24.8 °F - 21.2 °F 86% 30.17 in 5.0 mi Calm Calm - N/A   Scattered Clouds
10:55 AM 24.8 °F - 21.2 °F 86% 30.16 in 5.0 mi Calm Calm - N/A   Scattered Clouds
11:15 AM 24.8 °F - 23.0 °F 93% 30.15 in 5.0 mi Calm Calm - N/A   Clear
11:35 AM 26.6 °F 22.6 °F 24.8 °F 93% 30.13 in 7.0 mi ESE 3.5 mph - N/A   Clear
11:55 AM 26.6 °F 21.2 °F 24.8 °F 93% 30.12 in 7.0 mi SSE 4.6 mph - N/A   Clear
12:15 PM 28.4 °F 23.3 °F 24.8 °F 86% 30.11 in 7.0 mi SE 4.6 mph - N/A   Clear
12:35 PM 28.4 °F - 23.0 °F 80% 30.11 in 10.0 mi Calm Calm - N/A   Scattered Clouds
12:55 PM 30.2 °F 26.7 °F 23.0 °F 75% 30.09 in 10.0 mi SE 3.5 mph - N/A   Clear
1:15 PM 30.2 °F 26.7 °F 23.0 °F 75% 30.08 in 10.0 mi ENE 3.5 mph - N/A   Clear
1:35 PM 30.2 °F 26.7 °F 21.2 °F 69% 30.06 in 10.0 mi ENE 3.5 mph - N/A   Clear
1:55 PM 30.2 °F 24.3 °F 23.0 °F 75% 30.05 in 10.0 mi ESE 5.8 mph - N/A   Clear
2:16 PM 30.2 °F - 21.2 °F 69% 30.05 in 10.0 mi Calm Calm - N/A   Clear
2:35 PM 32.0 °F 27.5 °F 23.0 °F 69% 30.05 in 10.0 mi ESE 4.6 mph - N/A   Clear
2:55 PM 32.0 °F 28.7 °F 23.0 °F 69% 30.04 in 10.0 mi ESE 3.5 mph - N/A   Clear
3:16 PM 32.0 °F 27.5 °F 23.0 °F 69% 30.03 in 10.0 mi ESE 4.6 mph - N/A   Clear
3:35 PM 32.0 °F 26.4 °F 23.0 °F 69% 30.02 in 10.0 mi ESE 5.8 mph - N/A   Scattered Clouds
3:55 PM 32.0 °F 27.5 °F 23.0 °F 69% 30.02 in 10.0 mi ESE 4.6 mph - N/A   Scattered Clouds
4:16 PM 32.0 °F 25.6 °F 23.0 °F 69% 30.01 in 10.0 mi ESE 6.9 mph - N/A   Mostly Cloudy
4:35 PM 30.2 °F 25.4 °F 21.2 °F 69% 30.01 in 10.0 mi East 4.6 mph - N/A   Scattered Clouds
4:55 PM 30.2 °F 25.4 °F 21.2 °F 69% 30.00 in 10.0 mi East 4.6 mph - N/A   Scattered Clouds
5:15 PM 28.4 °F 24.6 °F 21.2 °F 74% 30.00 in 10.0 mi ESE 3.5 mph - N/A   Mostly Cloudy
5:35 PM 26.6 °F 20.0 °F 19.4 °F 74% 30.00 in 10.0 mi SE 5.8 mph - N/A   Scattered Clouds
5:55 PM 24.8 °F 16.9 °F 19.4 °F 80% 29.99 in 10.0 mi SE 6.9 mph - N/A   Scattered Clouds
6:15 PM 24.8 °F 16.1 °F 19.4 °F 80% 29.99 in 10.0 mi SE 8.1 mph - N/A   Scattered Clouds
6:35 PM 26.6 °F 20.0 °F 21.2 °F 80% 29.98 in 10.0 mi ESE 5.8 mph - N/A   Mostly Cloudy
6:55 PM 26.6 °F 18.2 °F 21.2 °F 80% 29.97 in 7.0 mi ESE 8.1 mph - N/A   Mostly Cloudy
7:15 PM 28.4 °F 20.4 °F 21.2 °F 74% 29.96 in 7.0 mi ESE 8.1 mph - N/A   Mostly Cloudy
7:35 PM 28.4 °F 20.4 °F 21.2 °F 74% 29.95 in 7.0 mi ESE 8.1 mph - N/A   Scattered Clouds
7:55 PM 28.4 °F 20.4 °F 21.2 °F 74% 29.95 in 7.0 mi ESE 8.1 mph - N/A   Clear
8:15 PM 28.4 °F 19.1 °F 21.2 °F 74% 29.93 in 7.0 mi ESE 10.4 mph - N/A   Clear
8:35 PM 28.4 °F 19.7 °F 21.2 °F 74% 29.92 in 7.0 mi ESE 9.2 mph - N/A   Scattered Clouds
8:55 PM 26.6 °F 19.1 °F 21.2 °F 80% 29.92 in 7.0 mi ESE 6.9 mph - N/A   Clear
9:15 PM 26.6 °F 19.1 °F 21.2 °F 80% 29.92 in 7.0 mi ESE 6.9 mph - N/A   Mostly Cloudy
9:35 PM 26.6 °F 19.1 °F 21.2 °F 80% 29.92 in 7.0 mi ESE 6.9 mph - N/A   Mostly Cloudy
9:55 PM 28.4 °F 20.4 °F 21.2 °F 74% 29.91 in 7.0 mi SE 8.1 mph - N/A   Mostly Cloudy
10:15 PM 28.4 °F 20.4 °F 21.2 °F 74% 29.90 in 7.0 mi SE 8.1 mph - N/A   Overcast
10:35 PM 28.4 °F 21.2 °F 21.2 °F 74% 29.90 in 7.0 mi SE 6.9 mph - N/A   Overcast
10:55 PM 28.4 °F 20.4 °F 23.0 °F 80% 29.89 in 7.0 mi SE 8.1 mph - N/A   Overcast
11:15 PM 30.2 °F 21.9 °F 23.0 °F 75% 29.88 in 7.0 mi SE 9.2 mph - N/A   Overcast
11:35 PM 30.2 °F 22.6 °F 23.0 °F 75% 29.88 in 7.0 mi SE 8.1 mph - N/A   Overcast
11:55 PM 30.2 °F 21.9 °F 23.0 °F 75% 29.86 in 7.0 mi ESE 9.2 mph - N/A   Overcast